www.pogodaiklimat.ru

Погода и климат >> Архив погоды >> Узбекистан >> Карши


ПОГОДА в Карши

  • Прогноз погоды в Карши
  • Монитор погоды в Карши

АРХИВ ПОГОДЫ в Карши

Время (UTC), дата Ветер
(напр.,м/с)
 
Видим.   Явления Облачность Т
(С)
Тd
(С)
f
(%)
Тe
(С)
Тes
(С)
Комфортность P
(гПа)
Po
(гПа)
Тmin
(С)
Tmax
(С)
R
(мм)
R24
(мм)
S
(см)
18 13.09 штиль 0 10 км ясно +19.2 +4.1 37 +19 +19 1013.6 970.4 +31.0
21 13.09 В 2 10 км 5/0
[Ci fib]
+18.4 +7.1 48 +19 +19 1013.2 970.0
00 14.09 В 2 10 км ясно +16.2 +6.3 52 +16 +16 1015.0 970.3
03 14.09 С 1 10 км 5/0
[Ac trans]
+16.6 +6.4 51 +18 +19 1015.0 971.4
06 14.09 З 2 10 км 6/0
[Ac trans]
+25.1 +6.7 31 +25 +33 комфорт 1013.3 970.9 +16.2
09 14.09 СВ 4 10 км 6/0
[Ac trans Ci fib]
+28.1 +7.3 27 +27 +33 жарко 1012.2 970.3
12 14.09 СЗ 8 10 км мгла 5/0
[Ac trans Ci fib]
+29.3 +4.5 21 +28 +28 жарко 1011.6 969.8
15 14.09 СЗ 2 10 км 5/0
[Ac trans Ci fib]
+19.9 +3.8 35 +21 +21 комфорт 1014.8 971.6 +29.9
18 14.09 С 1 10 км ясно +18.8 +2.9 35 +20 +20 1015.3 972.0 +29.9
21 14.09 ЮВ 2 10 км ясно +14.7 +6.2 57 +15 +15 1015.9 972.0
00 15.09 ЮВ 2 10 км 3/0
[Ac trans]
+13.6 +4.8 55 +13 +13 1016.3 972.2
03 15.09 В 1 10 км ясно +17.2 +3.8 41 +18 +20 1017.7 974.0
06 15.09 СЗ 2 10 км ясно +25.8 +4.0 24 +25 +36 комфорт 1017.6 975.1 +13.6
09 15.09 ЮЗ 5 10 км ясно +27.0 +1.1 19 +25 +32 комфорт 1016.6 974.5
12 15.09 нст 1 10 км ясно +27.2 +3.0 21 +26 +29 жарко 1015.9 973.7
15 15.09 С 3 10 км ясно +22.2 +5.1 33 +23 +23 комфорт 1015.8 972.9 +28.4
18 15.09 С 3 10 км ясно +19.9 +4.1 35 +21 +21 комфорт 1016.0 972.8 +28.4
21 15.09 С 1 10 км ясно +14.9 +4.3 49 +16 +16 1016.5 972.6
00 16.09 нст 1 10 км ясно +13.8 +4.0 52 +14 +14 1016.7 972.6
03 16.09 нст 1 10 км ясно +14.5 +3.2 47 +15 +17 1018.8 974.6
06 16.09 СЗ 5 10 км ясно +25.2 +4.1 26 +25 +31 комфорт 1019.1 976.5 +13.8
09 16.09 СЗ 5 10 км ясно +26.5 +3.0 22 +25 +32 комфорт 1018.6 976.1
12 16.09 С 7 10 км ясно +27.1 +1.7 19 +25 +26 комфорт 1016.9 974.7
15 16.09 СЗ 3 10 км ясно +19.0 +2.9 34 +19 +19 1018.6 975.1 +27.9
18 16.09 С 2 10 км ясно +18.7 +2.1 33 +19 +19 1018.4 975.0 +27.9
21 16.09 нст 1 10 км ясно +15.2 +3.0 44 +16 +16 1018.3 974.3
00 17.09 СВ 2 10 км ясно +11.8 +3.2 56 +11 +11 1018.1 973.6
03 17.09 В 1 10 км ясно +13.8 +3.0 48 +14 +16 1018.6 974.4
06 17.09 нст 1 10 км ясно +25.2 +4.1 26 +25 +38 комфорт 1017.9 975.3 +11.8
09 17.09 З 3 10 км ясно +28.2 +5.0 23 +27 +37 жарко 1015.2 973.1
12 17.09 штиль 0 10 км ясно +28.6 +5.1 22 +27 +30 жарко 1013.8 971.9
15 17.09 СВ 2 10 км ясно +24.0 +5.1 29 +24 +24 комфорт 1013.5 971.0 +29.8
18 17.09 В 1 10 км ясно +19.1 +7.3 46 +21 +21 комфорт 1014.4 971.1 +29.8
21 17.09 10 км ясно +16.4 +4.4 45 1014.2 969.5
00 18.09 В 4 10 км ясно +13.9 +5.5 57 +13 +13 1013.1 969.1
03 18.09 В 2 10 км ясно +16.0 +6.4 53 +16 +18 1013.0 969.3
06 18.09 нст 1 10 км ясно +28.4 +7.4 27 +28 +41 жарко 1009.7 968.0 +13.9
09 18.09 З 3 10 км ясно +32.6 +4.8 17 +30 +40 жарко 1009.3 968.1
12 18.09 СЗ 2 10 км 3/0
[Ci fib]
+33.0 +3.4 15 +30 +32 жарко 1008.7 967.5
15 18.09 СВ 2 10 км 3/0
[Ci fib]
+27.0 +9.3 33 +27 +27 жарко 1010.5 968.5 +34.3
18 18.09 В 3 10 км 3/0
[Ci fib]
+22.0 +7.8 40 +23 +23 комфорт 1013.4 970.6 +34.3
21 18.09 СВ 3 10 км 3/0
[Ci fib]
+19.6 +6.7 43 +21 +21 комфорт 1013.3 970.2
00 19.09 В 3 10 км 3/0
[Ci fib]
+18.4 +6.5 46 +19 +19 1013.6 970.4
03 19.09 СВ 2 10 км ясно +17.8 +6.8 48 +18 +20 1014.8 971.3
06 19.09 нст 1 10 км 1/0
[]
+31.4 +7.3 22 +30 +42 жарко 1012.9 971.4 +17.8
09 19.09 СЗ 4 10 км ясно +33.9 +2.9 14 +31 +39 жарко 1011.6 970.5
12 19.09 СЗ 2 10 км ясно +33.9 +4.5 16 +31 +34 жарко 1011.0 969.9
15 19.09 С 1 10 км ясно +28.3 +11.2 35 +29 +29 жарко 1011.8 970.0 +35.3
18 19.09 С 2 10 км ясно +24.1 +5.6 30 +24 +24 комфорт 1011.9 969.4 +35.3
21 19.09 СВ 2 10 км ясно +20.7 +7.0 41 +22 +22 комфорт 1011.3 968.4
00 20.09 В 3 10 км ясно +17.7 +7.8 52 +18 +18 1011.5 968.2
03 20.09 В 1 10 км ясно +20.1 +8.8 48 +22 +24 комфорт 1011.0 968.0
06 20.09 З 3 10 км ясно +30.0 +11.4 32 +31 +40 жарко 1011.5 970.0 +17.7
09 20.09 З 5 10 км ясно +34.5 +7.7 19 +33 +39 жарко 1009.8 968.9
12 20.09 СЗ 4 10 км ясно +34.5 +8.2 20 +33 +34 жарко 1010.2 969.2
15 20.09 штиль 0 10 км ясно +26.6 +9.2 33 +27 +27 жарко 1010.5 968.5 +35.1

 

Местоположение метеостанции Карши (Кашкадарьинская область, Узбекистан): широта 38.80 долгота 65.72 высота над уровнем моря 376 м.

В архиве по умолчанию представлена погода в Карши за последнюю неделю. Архивные данные за месяц целиком и за предыдущие месяцы, начиная с января 2011 года, Вы можете получить, выбрав интересующий диапазон дат из раскрывающегося списка и нажав кнопку "Ввод!".


*Определитесь, кто Вы:
робот инопланетянин человек

Внимание! Время в таблицах - всемирное. Для получения местного времени необходимо прибавить поправку, которая равна 5 ч.

Смотрите также архив погоды в соседних городах и на ближайших метеорологических станциях:

Погода в Гузаре (Кашкадарьинская область, Узбекистан) (52 км)
Погода в Дехканабаде (Сырдарьинская область, Узбекистан) (84 км)
Погода в Шахрисабзе (Кашкадарьинская область, Узбекистан) (100 км)
Погода в Нурабаде (Самаркандская область, Узбекистан) (105 км)
Погода в Минчукуре (Кашкадарьинская область, Узбекистан) (106 км)
Погода в Акрабате (Узбекистан) (114 км)
Погода в Атамурате (Лебапский велаят, Туркменистан) (117 км)
Погода на Каттакурган вдхр (Самаркандская область, Узбекистан) (122 км)
Погода в Бурдалыке (Лебапский велаят, Туркменистан) (123 км)
Погода в Самарканде (Самаркандская область, Узбекистан) (136 км)

Пояснения к столбцам:

Ветер - указаны скорость ветра в м/с - средняя за 10 мин, порывы в срок и между сроками (в фигурных скобках) и направление, откуда дует ветер: С - северный, СВ - северо-восточный, В - восточный, ЮВ - юго-восточный, Ю - южный, ЮЗ - юго-западный, З - западный, СЗ - северо-западный.
Видимость - горизонтальная дальность видимости в метрах или километрах. При видимости от 1 до 10 км при отсутствии осадков обычно наблюдается дымка, при ухудшении видимости до 1 км и менее - туман. В сухую погоду видимость может ухудшаться дымом, пылью или мглою.
Явления - указаны атмосферные явления, наблюдавшиеся в срок или в последний час перед сроком; фигурными скобками обозначены явления, наблюдавшиеся между сроками (за 1-3 часа до срока); квадратными скобками обозначены град или гололедные отложения с указанием их диаметра в мм.
Облачность - указаны через наклонную черту общая и нижняя облачность в баллах и высота нижней границы облаков в метрах; квадратными скобками обозначены формы облаков: Ci - перистые, Cs - перисто-слоистые, Cc - перисто-кучевые, Ac - высококучевые, As - высокослоистые, Sc - слоисто-кучевые, Ns - слоисто-дождевые, Cu - кучевые, Cb - кучево-дождевые. Подробнее классификацию облаков см. в Атласе облаков (PDF).
T - Температура воздуха - температура, измеренная на высоте 2 м над землей.
Td - Температура точки росы - температура, при понижении до которой содержащийся в воздухе водяной пар достигнет насыщения.
f - Относительная влажность воздуха - влажноcть воздуха, измеренная на высоте 2 м над землей.
Te - Эффективная температура - температура, которую ощущает одетый по сезону человек в тени. Характеристика душности погоды. При расчете учитывается влияние влажности воздуха и скорости ветра на теплоощущения человека.
Tes - Эффективная температура на солнце - температура, которую ощущает человек, с поправкой на солнечный нагрев. Характеристика знойности погоды. Зависит от высоты солнца над горизонтом, облачности и скорости ветра. Ночью, в пасмурную погоду, а также при ветре 12 м/с и более поправка равна нулю.
P - Атмосферное давление - приведенное к уровню моря атмосферное давление.
Po - Атмосферное давление - измеренное на уровне метеостанции атмосферное давление.
Tmin - Минимальная температура - минимум температуры воздуха на высоте 2 м над землей.
Tmax - Максимальная температура - максимум температуры воздуха на высоте 2 м над землей.
R - Количество осадков - Количество выпавших осадков за период времени, мм. При наведении курсора мыши на число - период времени, за который выпало указанное количество осадков.
R24 - Количество осадков - Количество выпавших осадков за 24 часа, мм.
S - Снежный покров - Высота снежного покрова, см. При наведении курсора мыши на число - состояние снежного покрова и степень покрытия местности в баллах.